EW7074 Weather Reports


Display with metric or nautical units.
time (UTC)temp
F
wind
direction
speed
MPH
gust
MPH
rain 1hr
in
rain 24hr
in
rain mn
in
humidity
%
barometer
mb
20260510180205 59 219 0.0 0.0 0.00 0.00 0.00 61 1019.9
20260510175935 59 244 0.0 0.0 0.00 0.00 0.00 60 1020.0
20260510175202 59 238 0.0 0.0 0.00 0.00 0.00 60 1019.9
20260510174718 60 225 0.0 0.0 0.00 0.00 0.00 60 1020.0
20260510174657 59 212 0.0 0.0 0.00 0.00 0.00 60 1019.8
20260510173921 60 308 0.0 0.0 0.00 0.00 0.00 60 1020.0
20260510173145 60 277 0.0 0.0 0.00 0.00 0.00 59 1020.1
20260510172915 60 214 0.0 0.0 0.00 0.00 0.00 59 1020.0
20260510172138 61 279 0.0 0.0 0.00 0.00 0.00 59 1020.3
20260510171905 60 300 0.0 0.0 0.00 0.00 0.00 60 1020.1
20260510171129 60 241 0.0 0.0 0.00 0.00 0.00 59 1020.0
20260510170630 60 222 0.0 0.0 0.00 0.00 0.00 60 1019.9
20260510170127 60 228 0.0 0.0 0.00 0.00 0.00 60 1019.9
20260510165855 60 220 0.0 0.0 0.00 0.00 0.00 60 1020.1
20260510165114 60 282 0.0 0.0 0.00 0.00 0.00 60 1020.3
20260510164604 60 287 0.0 0.0 0.00 0.00 0.00 59 1020.4
20260510164322 60 268 0.0 0.0 0.00 0.00 0.00 59 1020.4
20260510163534 60 305 0.0 0.0 0.00 0.00 0.00 61 1020.6
20260510163023 60 299 0.0 0.0 0.00 0.00 0.00 62 1020.6
20260510162502 59 352 0.0 0.0 0.00 0.00 0.00 64 1020.7
20260510162222 58 245 0.0 0.0 0.00 0.00 0.00 65 1020.8
20260510160932 57 217 0.0 0.0 0.00 0.00 0.00 68 1021.0
20260510160417 56 233 0.0 0.0 0.00 0.00 0.00 68 1021.2
20260510155900 57 235 0.0 0.0 0.00 0.00 0.00 68 1021.2
20260510155351 57 233 0.0 0.0 0.00 0.00 0.00 67 1021.3
20260510154839 57 233 0.0 0.0 0.00 0.00 0.00 67 1021.4
20260510154330 57 291 0.0 0.0 0.00 0.00 0.00 66 1021.5
20260510153820 58 301 0.0 0.0 0.00 0.00 0.00 66 1021.4
20260510153541 58 312 0.0 0.0 0.00 0.00 0.00 67 1021.6
20260510152802 57 259 0.0 0.0 0.00 0.00 0.00 67 1021.7
20260510152251 56 314 0.0 0.0 0.00 0.00 0.00 69 1021.8
20260510151739 56 293 0.0 0.0 0.00 0.00 0.00 70 1021.7
20260510151501 56 261 0.0 0.0 0.00 0.00 0.00 71 1021.6
20260510150951 56 272 0.0 0.0 0.00 0.00 0.00 71 1021.8
20260510150210 55 239 0.0 0.0 0.00 0.00 0.00 72 1021.9
20260510145926 55 245 0.0 0.0 0.00 0.00 0.00 71 1021.8
20260510145416 55 306 0.0 0.0 0.00 0.00 0.00 72 1021.9
20260510144634 55 231 0.0 0.0 0.00 0.00 0.00 71 1022.1
20260510144123 55 273 0.0 0.0 0.00 0.00 0.00 73 1022.2
20260510143611 55 298 0.0 0.0 0.00 0.00 0.00 73 1022.3
20260510142550 55 278 1.0 5.0 0.00 0.00 0.00 73 1022.5
20260510142035 54 266 3.0 8.0 0.00 0.00 0.00 74 1022.5
20260510141520 54 241 2.0 8.0 0.00 0.00 0.00 75 1022.6
20260510141011 54 285 2.0 7.0 0.00 0.00 0.00 75 1022.6
20260510140500 54 307 4.0 8.0 0.00 0.00 0.00 76 1022.6
20260510135950 54 252 4.0 8.0 0.00 0.00 0.00 75 1022.6
20260510135441 54 224 5.0 13.0 0.00 0.00 0.00 74 1022.7
20260510134938 55 256 4.0 13.0 0.00 0.00 0.00 74 1022.7
20260510134438 55 251 3.0 8.0 0.00 0.00 0.00 74 1022.7
20260510133939 55 294 2.0 8.0 0.00 0.00 0.00 75 1022.8
20260510133708 55 276 2.0 8.0 0.00 0.00 0.00 76 1022.8
20260510132937 55 320 1.0 7.0 0.00 0.00 0.00 77 1022.6
20260510132706 55 304 2.0 9.0 0.00 0.00 0.00 79 1022.7
20260510132541 54 310 3.0 9.0 0.00 0.00 0.00 81 1022.8
20260510131433 53 341 3.0 8.0 0.00 0.00 0.00 83 1022.7
20260510130933 53 292 3.0 8.0 0.00 0.00 0.00 84 1022.7
20260510130433 52 281 3.0 8.0 0.00 0.00 0.00 85 1022.7
20260510125932 52 224 2.0 8.0 0.00 0.00 0.00 86 1022.6
20260510125431 51 253 2.0 7.0 0.00 0.00 0.00 87 1022.5
20260510124431 51 273 2.0 6.0 0.00 0.00 0.00 88 1022.6
20260510123931 51 224 1.0 6.0 0.00 0.00 0.00 88 1022.6
20260510123431 51 260 0.0 4.0 0.00 0.00 0.00 89 1022.7
20260510122931 51 316 0.0 4.0 0.00 0.00 0.00 89 1022.8
20260510122430 51 262 0.0 5.0 0.00 0.00 0.00 89 1022.9
20260510121930 51 266 0.0 5.0 0.00 0.00 0.00 89 1022.9
20260510121431 50 261 0.0 6.0 0.00 0.00 0.00 89 1022.9
20260510120930 50 260 0.0 6.0 0.00 0.00 0.00 89 1022.9
20260510120700 50 284 0.0 2.0 0.00 0.00 0.00 90 1022.9
20260510115928 50 280 0.0 2.0 0.00 0.00 0.00 89 1022.8
20260510115428 50 280 1.0 3.0 0.00 0.00 0.00 89 1022.9
20260510114920 50 280 1.0 3.0 0.00 0.00 0.00 89 1022.8
20260510114405 50 251 1.0 5.0 0.00 0.00 0.00 89 1022.9
20260510113904 50 250 1.0 5.0 0.00 0.00 0.00 89 1023.0
20260510113403 50 231 1.0 4.0 0.00 0.00 0.00 88 1022.9
20260510113133 50 231 1.0 4.0 0.00 0.00 0.00 88 1022.9
20260510112403 50 230 1.0 4.0 0.00 0.00 0.00 88 1022.8
20260510111902 50 230 1.0 4.0 0.00 0.00 0.00 87 1022.9
20260510111403 50 229 2.0 6.0 0.00 0.00 0.00 87 1022.8
20260510110903 50 229 4.0 7.0 0.00 0.00 0.00 87 1022.8
20260510110348 50 226 4.0 9.0 0.00 0.00 0.00 86 1022.8
20260510105848 50 249 4.0 9.0 0.00 0.00 0.00 85 1022.7
20260510105346 51 237 4.0 7.0 0.00 0.00 0.00 85 1022.7
20260510104846 50 227 3.0 6.0 0.00 0.00 0.00 84 1022.6
20260510103843 50 241 3.0 6.0 0.00 0.00 0.00 84 1022.3
20260510103343 51 241 3.0 6.0 0.00 0.00 0.00 84 1022.4
20260510102838 51 227 2.0 6.0 0.00 0.00 0.00 84 1022.3
20260510102338 51 214 3.0 6.0 0.00 0.00 0.00 83 1022.3
20260510101838 51 210 3.0 5.0 0.00 0.00 0.00 83 1022.2
20260510101339 51 209 2.0 5.0 0.00 0.00 0.00 83 1022.2
20260510100837 51 203 2.0 5.0 0.00 0.00 0.00 83 1022.2
20260510100314 51 203 2.0 5.0 0.00 0.00 0.00 82 1022.1
20260510100040 51 212 2.0 5.0 0.00 0.00 0.00 82 1022.1
20260510095308 51 210 1.0 5.0 0.00 0.00 0.00 82 1022.1
20260510094801 51 233 0.0 3.0 0.00 0.00 0.00 82 1022.0
20260510094252 51 243 0.0 0.0 0.00 0.00 0.00 82 1021.8
20260510093753 51 243 0.0 0.0 0.00 0.00 0.00 82 1021.7
20260510093253 51 243 0.0 0.0 0.00 0.00 0.00 82 1021.7
20260510092751 51 243 0.0 0.0 0.00 0.00 0.00 82 1021.7
20260510092250 51 243 0.0 0.0 0.00 0.00 0.00 82 1021.5
20260510091750 51 243 0.0 0.0 0.00 0.00 0.00 82 1021.6
20260510091246 51 243 0.0 0.0 0.00 0.00 0.00 82 1021.5
20260510090746 51 243 0.0 0.0 0.00 0.00 0.00 82 1021.4
20260510090245 51 243 0.0 0.0 0.00 0.00 0.00 82 1021.3
20260510085743 51 243 0.0 0.0 0.00 0.00 0.00 82 1021.3
20260510085240 51 243 0.0 0.0 0.00 0.00 0.00 82 1021.3
20260510084736 51 243 0.0 0.0 0.00 0.00 0.00 82 1021.2
20260510084228 51 243 0.0 0.0 0.00 0.00 0.00 82 1021.3
20260510083956 51 243 0.0 0.0 0.00 0.00 0.00 82 1021.1
20260510083207 51 243 0.0 0.0 0.00 0.00 0.00 82 1021.1
20260510082926 51 243 0.0 0.0 0.00 0.00 0.00 81 1021.0
20260510082141 51 243 1.0 4.0 0.00 0.00 0.00 81 1021.0
20260510081631 51 243 2.0 4.0 0.00 0.00 0.00 81 1021.0
20260510081122 51 229 2.0 4.0 0.00 0.00 0.00 82 1021.0
20260510080611 51 216 1.0 4.0 0.00 0.00 0.00 82 1021.0
20260510080557 51 216 2.0 4.0 0.00 0.00 0.00 82 1020.9
20260510075547 51 216 2.0 4.0 0.00 0.00 0.00 83 1020.9
20260510075035 51 213 2.0 4.0 0.00 0.00 0.00 83 1021.0
20260510074525 51 210 2.0 5.0 0.00 0.00 0.00 83 1021.0
20260510074015 50 230 3.0 8.0 0.00 0.00 0.00 83 1021.0
20260510073506 51 219 4.0 8.0 0.00 0.00 0.00 83 1021.0
20260510072952 51 214 5.0 8.0 0.00 0.00 0.00 82 1021.1
20260510072444 51 206 5.0 8.0 0.00 0.00 0.00 81 1021.1
20260510071934 51 214 4.0 8.0 0.00 0.00 0.00 79 1021.1
20260510071424 52 206 3.0 6.0 0.00 0.00 0.00 78 1020.9
20260510070913 52 223 3.0 5.0 0.00 0.00 0.00 77 1021.0
20260510070401 52 225 3.0 6.0 0.00 0.00 0.00 77 1021.1
20260510065849 52 231 3.0 6.0 0.00 0.00 0.00 76 1021.0
20260510065340 52 241 2.0 5.0 0.00 0.00 0.00 76 1021.0
20260510064822 52 292 1.0 4.0 0.00 0.00 0.00 75 1021.0
20260510064314 52 293 1.0 4.0 0.00 0.00 0.00 75 1021.0
20260510063803 52 270 0.0 3.0 0.00 0.00 0.00 75 1021.0
20260510063253 52 280 1.0 4.0 0.00 0.00 0.00 75 1021.0
20260510062741 52 284 1.0 4.0 0.00 0.00 0.00 76 1021.2
20260510062231 52 305 1.0 4.0 0.00 0.00 0.00 76 1021.2
20260510061723 52 286 1.0 4.0 0.00 0.00 0.00 76 1021.2
20260510061211 52 292 1.0 5.0 0.00 0.00 0.00 76 1021.4
20260510060659 52 271 1.0 3.0 0.00 0.00 0.00 77 1021.5
20260510060147 52 287 1.0 4.0 0.00 0.00 0.00 77 1021.5
20260510060137 52 281 1.0 5.0 0.00 0.00 0.00 77 1021.5
20260510055131 52 276 2.0 5.0 0.00 0.00 0.00 77 1021.5
20260510054402 51 293 1.0 5.0 0.00 0.00 0.00 79 1021.6
20260510053629 51 260 1.0 5.0 0.00 0.00 0.00 79 1021.6
20260510052627 51 254 0.0 2.0 0.00 0.00 0.00 80 1021.6
20260510052127 51 254 1.0 3.0 0.00 0.00 0.00 80 1021.5
20260510051626 51 254 1.0 3.0 0.00 0.00 0.00 81 1021.4
20260510051122 51 254 1.0 5.0 0.00 0.00 0.00 81 1021.5
20260510050621 51 254 1.0 5.0 0.00 0.00 0.00 81 1021.6
20260510045619 51 227 3.0 5.0 0.00 0.00 0.00 81 1021.5
20260510045119 51 235 3.0 5.0 0.00 0.00 0.00 81 1021.5
20260510044619 51 230 3.0 5.0 0.00 0.00 0.00 80 1021.4
20260510044119 51 249 3.0 5.0 0.00 0.00 0.00 80 1021.4
20260510043624 51 239 2.0 6.0 0.00 0.00 0.00 80 1021.4
20260510043618 51 218 3.0 5.0 0.00 0.00 0.00 80 1021.3
20260510042618 51 250 2.0 6.0 0.00 0.00 0.00 79 1021.4
20260510042117 51 243 2.0 5.0 0.00 0.00 0.00 79 1021.5
20260510041615 51 253 2.0 5.0 0.00 0.00 0.00 79 1021.5
20260510041115 51 259 2.0 3.0 0.00 0.00 0.00 79 1021.4
20260510040615 51 260 2.0 3.0 0.00 0.00 0.00 79 1021.5
20260510040115 51 260 2.0 3.0 0.00 0.00 0.00 79 1021.5
20260510035615 51 260 1.0 3.0 0.00 0.00 0.00 79 1021.5
20260510035115 51 260 1.0 3.0 0.00 0.00 0.00 79 1021.4
20260510034623 51 260 0.0 2.0 0.00 0.00 0.00 79 1021.6
20260510034616 51 260 1.0 3.0 0.00 0.00 0.00 79 1021.5
20260510033615 51 260 1.0 3.0 0.00 0.00 0.00 79 1021.5
20260510033115 51 260 2.0 3.0 0.00 0.00 0.00 79 1021.6
20260510032613 51 260 1.0 5.0 0.00 0.00 0.00 80 1021.6
20260510032344 51 260 1.0 5.0 0.00 0.00 0.00 80 1021.6
20260510031844 51 260 1.0 3.0 0.00 0.00 0.00 80 1021.6
20260510031112 51 260 1.0 2.0 0.00 0.00 0.00 80 1021.7
20260510030625 51 260 0.0 2.0 0.00 0.00 0.00 79 1021.6
20260510030120 51 260 0.0 1.0 0.00 0.00 0.00 79 1021.5
20260510025601 51 260 0.0 2.0 0.00 0.00 0.00 79 1021.4
20260510025049 51 260 0.0 2.0 0.00 0.00 0.00 79 1021.5
20260510024537 51 260 0.0 1.0 0.00 0.00 0.00 78 1021.4
20260510024027 51 260 0.0 0.0 0.00 0.00 0.00 78 1021.3
20260510023518 52 260 0.0 0.0 0.00 0.00 0.00 78 1021.3
20260510023007 52 260 0.0 0.0 0.00 0.00 0.00 77 1021.3
20260510022455 52 260 0.0 0.0 0.00 0.00 0.00 77 1021.2
20260510021945 52 258 0.0 0.0 0.00 0.00 0.00 77 1021.2
20260510021436 52 243 0.0 0.0 0.00 0.00 0.00 76 1021.2
20260510020925 52 243 0.0 0.0 0.00 0.00 0.00 76 1021.3
20260510020413 52 243 0.0 0.0 0.00 0.00 0.00 76 1021.3
20260510015352 52 253 0.0 0.0 0.00 0.00 0.00 77 1021.2
20260510014842 51 235 0.0 0.0 0.00 0.00 0.00 77 1021.2
20260510014614 51 241 0.0 0.0 0.00 0.00 0.00 77 1021.1
20260510013832 51 245 0.0 0.0 0.00 0.00 0.00 77 1021.1
20260510013322 51 249 0.0 0.0 0.00 0.00 0.00 77 1021.1
20260510012816 51 256 0.0 0.0 0.00 0.00 0.00 77 1020.9
20260510012316 51 250 0.0 0.0 0.00 0.00 0.00 76 1020.9
20260510011815 52 228 0.0 0.0 0.00 0.00 0.00 76 1020.8
20260510011546 52 222 0.0 0.0 0.00 0.00 0.00 76 1020.8
20260510010814 52 222 0.0 0.0 0.00 0.00 0.00 76 1020.6
20260510010312 52 221 0.0 0.0 0.00 0.00 0.00 75 1020.5
20260510005812 52 222 0.0 0.0 0.00 0.00 0.00 75 1020.4
20260510005311 52 231 0.0 0.0 0.00 0.00 0.00 75 1020.5
20260510004807 52 237 0.0 0.0 0.00 0.00 0.00 75 1020.5
20260510004539 52 207 0.0 0.0 0.00 0.00 0.00 75 1020.5
20260510003808 53 216 0.0 0.0 0.00 0.00 0.00 74 1020.5
20260510003306 53 232 0.0 0.0 0.00 0.00 0.00 74 1020.5
20260510002804 53 246 0.0 0.0 0.00 0.00 0.00 74 1020.6
20260510002534 53 211 0.0 0.0 0.00 0.00 0.00 74 1020.5
20260510001803 53 243 0.0 0.0 0.00 0.00 0.00 74 1020.5
20260510001300 53 219 0.0 0.0 0.00 0.00 0.00 74 1020.3
20260510001031 53 221 0.0 0.0 0.00 0.00 0.00 74 1020.4
20260510000304 54 204 0.0 0.0 0.00 0.00 0.00 73 1020.1
20260509235800 54 241 0.0 0.0 0.00 0.00 0.00 73 1020.0
20260509235301 54 208 0.0 0.0 0.00 0.00 0.00 72 1019.8
20260509235030 54 199 0.0 0.0 0.00 0.00 0.00 71 1019.7
20260509234258 54 229 0.0 0.0 0.00 0.00 0.00 70 1019.6
20260509233758 55 212 0.0 0.0 0.00 0.00 0.00 70 1019.4
20260509233258 55 235 0.0 0.0 0.00 0.00 0.00 69 1019.5
20260509233029 55 244 0.0 0.0 0.00 0.00 0.00 68 1019.5
20260509232257 55 243 0.0 0.0 0.00 0.00 0.00 68 1019.4
20260509231755 56 231 0.0 0.0 0.00 0.00 0.00 68 1019.3
20260509231254 56 247 0.0 0.0 0.00 0.00 0.00 67 1019.0
20260509230754 56 246 0.0 0.0 0.00 0.00 0.00 67 1019.0
20260509230255 56 247 0.0 0.0 0.00 0.00 0.00 66 1018.9
20260509225753 56 247 0.0 0.0 0.00 0.00 0.00 66 1018.7
20260509225250 56 246 0.0 0.0 0.00 0.00 0.00 66 1018.7
20260509224748 56 246 0.0 0.0 0.00 0.00 0.00 66 1018.4
20260509224248 57 246 0.0 0.0 0.00 0.00 0.00 66 1018.3
20260509223749 57 246 0.0 0.0 0.00 0.00 0.00 66 1018.2
20260509223248 57 247 0.0 0.0 0.00 0.00 0.00 67 1018.2
20260509222748 57 226 0.0 0.0 0.00 0.00 0.00 68 1018.0
20260509222248 57 226 0.0 0.0 0.00 0.00 0.00 67 1018.0
20260509221746 57 226 0.0 0.0 0.00 0.00 0.00 67 1017.9
20260509221517 58 222 0.0 0.0 0.00 0.00 0.00 66 1018.0
20260509221017 58 220 0.0 0.0 0.00 0.00 0.00 66 1017.9
20260509220245 58 216 0.0 0.0 0.00 0.00 0.00 64 1017.7
20260509215743 58 236 0.0 0.0 0.00 0.00 0.00 64 1017.7
20260509215243 58 244 0.0 0.0 0.00 0.00 0.00 65 1017.6
20260509214742 58 243 0.0 0.0 0.00 0.00 0.00 66 1017.4
20260509214512 58 199 0.0 0.0 0.00 0.00 0.00 68 1017.4
20260509213741 58 227 0.0 0.0 0.00 0.00 0.00 66 1017.3
20260509213240 58 16 0.0 0.0 0.00 0.00 0.00 64 1016.8
20260509212738 59 16 0.0 0.0 0.00 0.00 0.00 63 1016.6
20260509212236 59 18 0.0 0.0 0.00 0.00 0.00 64 1016.4
20260509211736 59 18 0.0 0.0 0.00 0.00 0.00 63 1016.4
20260509211233 59 16 0.0 0.0 0.00 0.00 0.00 62 1016.3
20260509210727 60 15 0.0 0.0 0.00 0.00 0.00 62 1016.4
20260509210228 60 15 0.0 0.0 0.00 0.00 0.00 61 1016.3
20260509205951 60 8 0.0 0.0 0.00 0.00 0.00 61 1016.1
20260509205222 60 351 0.0 0.0 0.00 0.00 0.00 60 1015.9
20260509204716 60 351 0.0 0.0 0.00 0.00 0.00 60 1015.9
20260509204212 61 349 0.0 0.0 0.00 0.00 0.00 59 1016.0
20260509203655 61 349 0.0 0.0 0.00 0.00 0.00 59 1016.1
20260509203151 61 350 0.0 0.0 0.00 0.00 0.00 59 1016.0
20260509202634 62 350 0.0 0.0 0.00 0.00 0.00 58 1016.0
20260509202131 62 350 0.0 0.0 0.00 0.00 0.00 58 1015.9
20260509201622 62 7 0.0 0.0 0.00 0.00 0.00 57 1015.9
20260509201106 62 323 0.0 0.0 0.00 0.00 0.00 56 1015.9
20260509200554 62 333 0.0 0.0 0.00 0.00 0.00 56 1016.0
20260509200042 62 325 0.0 0.0 0.00 0.00 0.00 56 1016.0
20260509195023 62 330 0.0 0.0 0.00 0.00 0.00 56 1015.9
20260509194512 62 345 0.0 0.0 0.00 0.00 0.00 55 1016.1
20260509194235 62 351 0.0 0.0 0.00 0.00 0.00 56 1016.0
20260509193452 62 2 0.0 0.0 0.00 0.00 0.00 56 1015.9
20260509192948 62 357 0.0 0.0 0.00 0.00 0.00 57 1015.9
20260509192436 62 325 0.0 0.0 0.00 0.00 0.00 56 1015.9
20260509191925 62 315 0.0 0.0 0.00 0.00 0.00 56 1015.8
20260509191413 62 356 0.0 0.0 0.00 0.00 0.00 56 1015.8
20260509190857 62 315 0.0 0.0 0.00 0.00 0.00 55 1015.8
20260509190343 62 309 0.0 0.0 0.00 0.00 0.00 55 1015.7
20260509185833 62 347 0.0 0.0 0.00 0.00 0.00 55 1015.8
20260509185322 62 331 0.0 0.0 0.00 0.00 0.00 55 1015.9
20260509185034 62 335 0.0 0.0 0.00 0.00 0.00 55 1015.9
20260509184514 62 304 0.0 0.0 0.00 0.00 0.00 54 1015.9
20260509183733 63 324 0.0 0.0 0.00 0.00 0.00 53 1016.1
20260509183212 63 323 0.0 0.0 0.00 0.00 0.00 53 1015.9
20260509182658 62 326 0.0 0.0 0.00 0.00 0.00 54 1015.7
20260509181655 62 30 0.0 0.0 0.00 0.00 0.00 54 1015.6
20260509181155 62 239 0.0 0.0 0.00 0.00 0.00 54 1015.6
20260509180649 62 305 0.0 0.0 0.00 0.00 0.00 53 1015.8